Year,Month,Day,Hour,Minute,Value (Times are PST for temperature in C)
2008,07,24,00,00,12.50
2008,07,24,00,01,12.50
2008,07,24,00,02,12.40
2008,07,24,00,03,12.40
2008,07,24,00,04,12.40
2008,07,24,00,05,12.40
2008,07,24,00,06,12.40
2008,07,24,00,07,12.40
2008,07,24,00,08,12.30
2008,07,24,00,09,12.30
2008,07,24,00,10,12.30
2008,07,24,00,11,12.30
2008,07,24,00,12,12.30
2008,07,24,01,02,11.60
2008,07,24,01,03,11.60
2008,07,24,01,04,11.60
2008,07,24,01,05,11.60
2008,07,24,01,06,11.60
2008,07,24,01,07,11.50
2008,07,24,01,08,11.40
2008,07,24,01,09,11.40
2008,07,24,01,10,11.40
2008,07,24,01,11,11.40
2008,07,24,01,12,11.40
2008,07,24,01,13,11.40
2008,07,24,01,14,11.40
2008,07,24,01,15,11.40
2008,07,24,01,16,11.40
2008,07,24,01,17,11.40
2008,07,24,01,18,11.30
2008,07,24,01,19,11.30
2008,07,24,01,20,11.30
2008,07,24,01,21,11.20
2008,07,24,01,22,11.20
2008,07,24,01,23,11.20
2008,07,24,01,24,11.10
2008,07,24,01,25,11.10
2008,07,24,01,26,11.10
2008,07,24,01,27,11.10
2008,07,24,01,28,11.10
2008,07,24,01,29,11.10
2008,07,24,01,30,11.10
2008,07,24,01,31,11.10
2008,07,24,01,32,11.10
2008,07,24,01,33,11.10
2008,07,24,01,34,11.00
2008,07,24,01,35,10.90
2008,07,24,01,36,10.90
2008,07,24,01,37,10.90
2008,07,24,01,38,10.90
2008,07,24,01,39,10.90
2008,07,24,01,40,10.90
2008,07,24,01,41,10.90
2008,07,24,01,42,10.90
2008,07,24,01,43,10.90
2008,07,24,01,44,10.90
2008,07,24,01,45,10.80
2008,07,24,01,46,10.80
2008,07,24,01,47,10.80
2008,07,24,01,48,10.80
2008,07,24,01,49,10.80
2008,07,24,01,50,10.80
2008,07,24,01,51,10.80
2008,07,24,01,52,10.70
2008,07,24,01,53,10.70
2008,07,24,01,54,10.70
2008,07,24,01,55,10.70
2008,07,24,01,56,10.70
2008,07,24,01,57,10.70
2008,07,24,01,58,10.70
2008,07,24,01,59,10.70
2008,07,24,02,00,10.60
2008,07,24,02,01,10.60
2008,07,24,02,02,10.60
2008,07,24,02,03,10.60
2008,07,24,02,04,10.60
2008,07,24,02,05,10.60
2008,07,24,02,06,10.60
2008,07,24,02,07,10.60
2008,07,24,02,08,10.60
2008,07,24,02,09,10.60
2008,07,24,02,10,10.60
2008,07,24,02,11,10.60
2008,07,24,02,12,10.50
2008,07,24,02,13,10.40
2008,07,24,02,14,10.40
2008,07,24,02,15,10.40
2008,07,24,02,16,10.40
2008,07,24,02,17,10.40
2008,07,24,02,18,10.40
2008,07,24,02,19,10.40
2008,07,24,02,20,10.40
2008,07,24,02,21,10.40
2008,07,24,02,22,10.40
2008,07,24,02,23,10.40
2008,07,24,02,24,10.30
2008,07,24,02,25,10.30
2008,07,24,02,26,10.30
2008,07,24,02,27,10.30
2008,07,24,02,28,10.30
2008,07,24,02,29,10.30
2008,07,24,02,30,10.30
2008,07,24,02,31,10.30
2008,07,24,02,32,10.30
2008,07,24,02,33,10.20
2008,07,24,02,34,10.20
2008,07,24,02,35,10.20
2008,07,24,02,36,10.20
2008,07,24,02,37,10.20
2008,07,24,02,38,10.20
2008,07,24,02,39,10.20
2008,07,24,02,40,10.10
2008,07,24,02,41,10.10
2008,07,24,02,42,10.10
2008,07,24,02,43,10.10
2008,07,24,02,44,10.10
2008,07,24,02,45,10.10
2008,07,24,02,46,10.10
2008,07,24,02,47,10.10
2008,07,24,02,48,10.10
2008,07,24,02,49,10.10
2008,07,24,02,50,10.10
2008,07,24,02,51,10.10
2008,07,24,02,52,10.10
2008,07,24,02,53,10.10
2008,07,24,02,54,10.10
2008,07,24,02,55,10.10
2008,07,24,02,56,10.00
2008,07,24,02,57,9.90
2008,07,24,02,58,9.90
2008,07,24,02,59,9.90
2008,07,24,03,00,9.90
2008,07,24,03,01,9.90
2008,07,24,03,02,9.90
2008,07,24,03,03,9.90
2008,07,24,03,04,9.90
2008,07,24,03,05,9.90
2008,07,24,03,06,9.90
2008,07,24,03,07,9.90
2008,07,24,03,08,9.90
2008,07,24,03,09,9.90
2008,07,24,03,10,9.90
2008,07,24,03,11,9.90
2008,07,24,03,12,9.90
2008,07,24,03,13,9.90
2008,07,24,03,14,9.90
2008,07,24,03,15,9.90
2008,07,24,03,16,9.90
2008,07,24,03,17,9.90
2008,07,24,03,18,9.90
2008,07,24,03,19,9.90
2008,07,24,03,20,9.90
2008,07,24,03,21,9.90
2008,07,24,03,22,9.90
2008,07,24,03,23,9.90
2008,07,24,03,24,9.90
2008,07,24,03,25,9.90
2008,07,24,03,26,9.90
2008,07,24,03,27,9.90
2008,07,24,03,28,9.90
2008,07,24,03,29,9.90
2008,07,24,03,30,9.90
2008,07,24,03,31,9.90
2008,07,24,03,32,9.90
2008,07,24,03,33,9.90
2008,07,24,03,34,9.90
2008,07,24,03,35,9.90
2008,07,24,03,36,9.90
2008,07,24,03,37,9.90
2008,07,24,03,38,9.90
2008,07,24,03,39,9.90
2008,07,24,03,40,9.90
2008,07,24,03,41,9.90
2008,07,24,03,42,9.90
2008,07,24,03,43,9.90
2008,07,24,03,44,9.90
2008,07,24,03,45,9.90
2008,07,24,03,46,9.90
2008,07,24,03,47,9.90
2008,07,24,03,48,9.90
2008,07,24,03,49,9.90
2008,07,24,03,50,9.90
2008,07,24,03,51,9.90
2008,07,24,03,52,9.90
2008,07,24,03,53,9.90
2008,07,24,03,54,9.90
2008,07,24,03,55,9.90
2008,07,24,03,56,9.80
2008,07,24,03,57,9.80
2008,07,24,03,58,9.80
2008,07,24,03,59,9.80
2008,07,24,04,00,9.80
2008,07,24,04,01,9.70
2008,07,24,04,02,9.70
2008,07,24,04,03,9.70
2008,07,24,04,04,9.70
2008,07,24,04,05,9.70
2008,07,24,04,06,9.70
2008,07,24,04,07,9.70
2008,07,24,04,08,9.70
2008,07,24,04,09,9.70
2008,07,24,04,10,9.70
2008,07,24,04,11,9.70
2008,07,24,04,12,9.70
2008,07,24,04,13,9.70
2008,07,24,04,14,9.70
2008,07,24,04,15,9.70
2008,07,24,04,16,9.70
2008,07,24,04,17,9.70
2008,07,24,04,18,9.70
2008,07,24,04,19,9.70
2008,07,24,04,20,9.70
2008,07,24,04,21,9.70
2008,07,24,04,22,9.70
2008,07,24,04,23,9.70
2008,07,24,04,24,9.70
2008,07,24,04,25,9.60
2008,07,24,04,26,9.60
2008,07,24,04,27,9.60
2008,07,24,04,28,9.60
2008,07,24,04,29,9.60
2008,07,24,04,30,9.60
2008,07,24,04,31,9.60
2008,07,24,04,32,9.60
2008,07,24,04,33,9.60
2008,07,24,04,34,9.60
2008,07,24,04,35,9.60
2008,07,24,04,36,9.60
2008,07,24,04,37,9.60
2008,07,24,04,38,9.50
2008,07,24,04,39,9.50
2008,07,24,04,40,9.50
2008,07,24,04,41,9.50
2008,07,24,04,42,9.50
2008,07,24,04,43,9.50
2008,07,24,04,44,9.50
2008,07,24,04,45,9.50
2008,07,24,04,46,9.50
2008,07,24,04,47,9.50
2008,07,24,04,48,9.50
2008,07,24,04,49,9.40
2008,07,24,04,50,9.40
2008,07,24,04,51,9.40
2008,07,24,04,52,9.40
2008,07,24,04,53,9.40
2008,07,24,04,54,9.40
2008,07,24,04,55,9.40
2008,07,24,04,56,9.40
2008,07,24,04,57,9.30
2008,07,24,04,58,9.30
2008,07,24,04,59,9.30
2008,07,24,05,00,9.30
2008,07,24,05,01,9.30
2008,07,24,05,02,9.30
2008,07,24,05,03,9.30
2008,07,24,05,04,9.30
2008,07,24,05,05,9.20
2008,07,24,05,06,9.20
2008,07,24,05,07,9.20
2008,07,24,05,08,9.20
2008,07,24,05,09,9.20
2008,07,24,05,10,9.20
2008,07,24,05,11,9.20
2008,07,24,05,12,9.20
2008,07,24,05,13,9.20
2008,07,24,05,14,9.20
2008,07,24,05,15,9.20
2008,07,24,05,16,9.20
2008,07,24,05,17,9.20
2008,07,24,05,18,9.20
2008,07,24,05,19,9.20
2008,07,24,05,20,9.10
2008,07,24,05,21,9.10
2008,07,24,05,22,9.10
2008,07,24,05,23,9.10
2008,07,24,05,24,9.10
2008,07,24,05,25,9.10
2008,07,24,05,26,9.10
2008,07,24,05,27,9.10
2008,07,24,05,28,9.10
2008,07,24,05,29,9.00
2008,07,24,05,30,9.00
2008,07,24,05,31,9.00
2008,07,24,05,32,9.00
2008,07,24,05,33,9.00
2008,07,24,05,34,9.00
2008,07,24,05,35,9.00
2008,07,24,05,36,9.00
2008,07,24,05,37,9.00
2008,07,24,05,38,8.90
2008,07,24,05,39,8.90
2008,07,24,05,40,8.90
2008,07,24,05,41,8.90
2008,07,24,05,42,8.90
2008,07,24,05,43,8.90
2008,07,24,05,44,8.90
2008,07,24,05,45,8.90
2008,07,24,05,46,8.90
2008,07,24,05,47,8.90
2008,07,24,05,48,8.90
2008,07,24,05,49,8.80
2008,07,24,05,50,8.80
2008,07,24,05,51,8.80
2008,07,24,05,52,8.80
2008,07,24,05,53,8.80
2008,07,24,05,54,8.80
2008,07,24,05,55,8.80
2008,07,24,05,56,8.80
2008,07,24,05,57,8.80
2008,07,24,05,58,8.80
2008,07,24,05,59,8.80
2008,07,24,06,00,8.80
2008,07,24,06,01,8.80
2008,07,24,06,02,8.80
2008,07,24,06,03,8.80
2008,07,24,06,04,8.80
2008,07,24,06,05,8.80
2008,07,24,06,06,8.80
2008,07,24,06,07,8.80
2008,07,24,06,08,8.80
2008,07,24,06,09,8.80
2008,07,24,06,10,8.80
2008,07,24,06,11,8.80
2008,07,24,06,12,8.70
2008,07,24,06,13,8.70
2008,07,24,06,14,8.70
2008,07,24,06,15,8.70
2008,07,24,06,16,8.70
2008,07,24,06,17,8.70
2008,07,24,06,18,8.70
2008,07,24,06,19,8.70
2008,07,24,06,20,8.70
2008,07,24,06,21,8.70
2008,07,24,06,22,8.70
2008,07,24,06,23,8.80
2008,07,24,06,24,8.80
2008,07,24,06,25,8.80
2008,07,24,06,26,8.80
2008,07,24,06,27,8.80
2008,07,24,06,28,8.80
2008,07,24,06,29,8.80
2008,07,24,06,30,8.80
2008,07,24,06,31,8.80
2008,07,24,06,32,8.80
2008,07,24,06,33,8.80
2008,07,24,06,34,8.80
2008,07,24,06,35,8.80
2008,07,24,06,36,8.80
2008,07,24,06,37,8.90
2008,07,24,06,38,8.90
2008,07,24,06,39,8.90
2008,07,24,06,40,8.90
2008,07,24,06,41,8.90
2008,07,24,06,42,8.90
2008,07,24,06,43,8.90
2008,07,24,06,44,8.90
2008,07,24,06,45,8.90
2008,07,24,06,46,9.00
2008,07,24,06,47,9.00
2008,07,24,06,48,9.00
2008,07,24,06,49,9.00
2008,07,24,06,50,9.00
2008,07,24,06,51,9.00
2008,07,24,06,52,9.10
2008,07,24,06,53,9.10
2008,07,24,06,54,9.10
2008,07,24,06,55,9.10
2008,07,24,06,56,9.10
2008,07,24,06,57,9.10
2008,07,24,06,58,9.10
2008,07,24,06,59,9.20
2008,07,24,07,00,9.20
2008,07,24,07,01,9.20
2008,07,24,07,02,9.20
2008,07,24,07,03,9.20
2008,07,24,07,04,9.20
2008,07,24,07,05,9.20
2008,07,24,07,06,9.20
2008,07,24,07,07,9.20
2008,07,24,07,08,9.20
2008,07,24,07,09,9.30
2008,07,24,07,10,9.30
2008,07,24,07,11,9.30
2008,07,24,07,12,9.30
2008,07,24,07,13,9.30
2008,07,24,07,14,9.40
2008,07,24,07,15,9.40
2008,07,24,07,16,9.40
2008,07,24,07,17,9.40
2008,07,24,07,18,9.40
2008,07,24,07,19,9.50
2008,07,24,07,20,9.50
2008,07,24,07,21,9.50
2008,07,24,07,22,9.50
2008,07,24,07,23,9.60
2008,07,24,07,24,9.60
2008,07,24,07,25,9.60
2008,07,24,07,26,9.70
2008,07,24,07,27,9.70
2008,07,24,07,28,9.80
2008,07,24,07,29,9.80
2008,07,24,07,30,9.80
2008,07,24,07,31,9.90
2008,07,24,07,32,9.90
2008,07,24,07,33,10.00
2008,07,24,07,34,10.10
2008,07,24,07,35,10.10
2008,07,24,07,36,10.10
2008,07,24,07,37,10.20
2008,07,24,07,38,10.20
2008,07,24,07,39,10.30
2008,07,24,07,40,10.30
2008,07,24,07,41,10.40
2008,07,24,07,42,10.40
2008,07,24,07,43,10.40
2008,07,24,07,44,10.40
2008,07,24,07,45,10.50
2008,07,24,07,46,10.60
2008,07,24,07,47,10.60
2008,07,24,07,48,10.60
2008,07,24,07,49,10.70
2008,07,24,07,50,10.70
2008,07,24,07,51,10.80
2008,07,24,07,52,10.80
2008,07,24,07,53,10.90
2008,07,24,07,54,10.90
2008,07,24,07,55,10.90
2008,07,24,07,56,11.00
2008,07,24,07,57,11.10
2008,07,24,07,58,11.10
2008,07,24,07,59,11.10
2008,07,24,08,00,11.10
2008,07,24,08,01,11.20
2008,07,24,08,02,11.20
2008,07,24,08,03,11.30
2008,07,24,08,04,11.30
2008,07,24,08,05,11.40
2008,07,24,08,06,11.40
2008,07,24,08,07,11.40
2008,07,24,08,08,11.40
2008,07,24,08,09,11.50
2008,07,24,08,10,11.60
2008,07,24,08,11,11.60
2008,07,24,08,12,11.60
2008,07,24,08,13,11.70
2008,07,24,08,14,11.70
2008,07,24,08,15,11.80
2008,07,24,08,16,11.80
2008,07,24,08,17,11.90
2008,07,24,08,18,12.00
2008,07,24,08,19,12.00
2008,07,24,08,20,12.10
2008,07,24,08,21,12.10
2008,07,24,08,22,12.20
2008,07,24,08,23,12.30
2008,07,24,08,24,12.30
2008,07,24,08,25,12.40
2008,07,24,08,26,12.50
2008,07,24,08,27,12.60
2008,07,24,08,28,12.60
2008,07,24,08,29,12.70
2008,07,24,08,30,12.70
2008,07,24,08,31,12.80
2008,07,24,08,32,12.80
2008,07,24,08,33,12.90
2008,07,24,08,34,13.00
2008,07,24,08,35,13.00
2008,07,24,08,36,13.10
2008,07,24,08,37,13.20
2008,07,24,08,38,13.20
2008,07,24,08,39,13.30
2008,07,24,08,40,13.30
2008,07,24,08,41,13.30
2008,07,24,08,42,13.40
2008,07,24,08,43,13.40
2008,07,24,08,44,13.50
2008,07,24,08,45,13.50
2008,07,24,08,46,13.60
2008,07,24,08,47,13.60
2008,07,24,08,48,13.70
2008,07,24,08,49,13.70
2008,07,24,08,50,13.70
2008,07,24,08,51,13.80
2008,07,24,08,52,13.90
2008,07,24,08,53,13.90
2008,07,24,08,54,14.00
2008,07,24,08,55,14.00
2008,07,24,08,56,14.10
2008,07,24,08,57,14.10
2008,07,24,08,58,14.20
2008,07,24,08,59,14.20
2008,07,24,09,00,14.20
2008,07,24,09,01,14.30
2008,07,24,09,02,14.30
2008,07,24,09,03,14.40
2008,07,24,09,04,14.40
2008,07,24,09,05,14.50
2008,07,24,09,06,14.50
2008,07,24,09,07,14.50
2008,07,24,09,08,14.50
2008,07,24,09,09,14.50
2008,07,24,09,10,14.60
2008,07,24,09,11,14.60
2008,07,24,09,12,14.70
2008,07,24,09,13,14.70
2008,07,24,09,14,14.80
2008,07,24,09,15,14.80
2008,07,24,09,16,14.80
2008,07,24,09,17,14.80
2008,07,24,09,18,14.80
2008,07,24,09,19,14.80
2008,07,24,09,20,14.90
2008,07,24,09,21,15.00
2008,07,24,09,22,15.10
2008,07,24,09,23,15.10
2008,07,24,09,24,15.20
2008,07,24,09,25,15.20
2008,07,24,09,26,15.20
2008,07,24,09,27,15.30
2008,07,24,09,28,15.30
2008,07,24,09,29,15.40
2008,07,24,09,30,15.40
2008,07,24,09,31,15.50
2008,07,24,09,32,15.60
2008,07,24,09,33,15.60
2008,07,24,09,34,15.80
2008,07,24,09,35,15.90
2008,07,24,09,36,15.90
2008,07,24,09,37,16.00
2008,07,24,09,38,16.20
2008,07,24,09,39,16.30
2008,07,24,09,40,16.40
2008,07,24,09,41,16.40
2008,07,24,09,42,16.40
2008,07,24,09,43,16.40
2008,07,24,09,44,16.40
2008,07,24,09,45,16.40
2008,07,24,09,46,16.40
2008,07,24,09,47,16.30
2008,07,24,09,48,16.40
2008,07,24,09,49,16.40
2008,07,24,09,50,16.40
2008,07,24,09,51,16.60
2008,07,24,09,52,16.60
2008,07,24,09,53,16.70
2008,07,24,09,54,16.70
2008,07,24,09,55,16.70
2008,07,24,09,56,16.80
2008,07,24,09,57,16.90
2008,07,24,09,58,17.10
2008,07,24,09,59,17.40
2008,07,24,10,00,17.60
2008,07,24,10,01,17.80
2008,07,24,10,02,17.90
2008,07,24,10,03,18.00
2008,07,24,10,04,17.90
2008,07,24,10,05,17.90
2008,07,24,10,06,17.90
2008,07,24,10,07,17.90
2008,07,24,10,08,17.80
2008,07,24,10,09,17.80
2008,07,24,10,10,17.70
2008,07,24,10,11,17.60
2008,07,24,10,12,17.60
2008,07,24,10,13,17.40
2008,07,24,10,14,17.30
2008,07,24,10,15,17.30
2008,07,24,10,16,17.50
2008,07,24,10,17,17.50
2008,07,24,10,18,17.60
2008,07,24,10,19,17.70
2008,07,24,10,20,17.80
2008,07,24,10,21,17.90
2008,07,24,10,22,17.90
2008,07,24,10,23,17.90
2008,07,24,10,24,17.90
2008,07,24,10,25,17.80
2008,07,24,10,26,17.70
2008,07,24,10,27,17.50
2008,07,24,10,28,17.40
2008,07,24,10,29,17.30
2008,07,24,10,30,17.30
2008,07,24,10,31,17.40
2008,07,24,10,32,17.50
2008,07,24,10,33,17.50
2008,07,24,10,34,17.50
2008,07,24,10,35,17.50
2008,07,24,10,36,17.50
2008,07,24,10,37,17.50
2008,07,24,10,38,17.50
2008,07,24,10,39,17.60
2008,07,24,10,40,17.60
2008,07,24,10,41,17.70
2008,07,24,10,42,17.80
2008,07,24,10,43,17.90
2008,07,24,10,44,17.90
2008,07,24,10,45,18.10
2008,07,24,10,46,18.00
2008,07,24,10,47,17.90
2008,07,24,10,48,17.90
2008,07,24,10,49,17.80
2008,07,24,10,50,17.70
2008,07,24,10,51,17.70
2008,07,24,10,52,17.60
2008,07,24,10,53,17.70
2008,07,24,10,54,17.70
2008,07,24,10,55,17.70
2008,07,24,10,56,17.60
2008,07,24,10,57,17.60
2008,07,24,10,58,17.50
2008,07,24,10,59,17.50
2008,07,24,11,00,17.40
2008,07,24,11,01,17.40
2008,07,24,11,02,17.40
2008,07,24,11,03,17.50
2008,07,24,11,04,17.60
2008,07,24,11,05,17.70
2008,07,24,11,06,17.80
2008,07,24,11,07,17.80
2008,07,24,11,08,17.80
2008,07,24,11,09,17.90
2008,07,24,11,10,18.00
2008,07,24,11,11,18.20
2008,07,24,11,12,18.20
2008,07,24,11,13,18.20
2008,07,24,11,14,18.20
2008,07,24,11,15,18.20
2008,07,24,11,16,18.20
2008,07,24,11,17,18.20
2008,07,24,11,18,18.20
2008,07,24,11,19,18.20
2008,07,24,11,20,18.20
2008,07,24,11,21,18.30
2008,07,24,11,22,18.40
2008,07,24,11,23,18.50
2008,07,24,11,24,18.50
2008,07,24,11,25,18.50
2008,07,24,11,26,18.40
2008,07,24,11,27,18.40
2008,07,24,11,28,18.40
2008,07,24,11,29,18.40
2008,07,24,11,30,18.30
2008,07,24,11,31,18.30
2008,07,24,11,32,18.30
2008,07,24,11,33,18.30
2008,07,24,11,34,18.30
2008,07,24,11,35,18.40
2008,07,24,11,36,18.50
2008,07,24,11,37,18.60
2008,07,24,11,38,18.70
2008,07,24,11,39,18.80
2008,07,24,11,40,18.90
2008,07,24,11,41,18.90
2008,07,24,11,42,18.90
2008,07,24,11,43,18.80
2008,07,24,11,44,18.80
2008,07,24,11,45,18.70
2008,07,24,11,46,18.60
2008,07,24,11,47,18.60
2008,07,24,11,48,18.60
2008,07,24,11,49,18.50
2008,07,24,11,50,18.50
2008,07,24,11,51,18.50
2008,07,24,11,52,18.60
2008,07,24,11,53,18.60
2008,07,24,11,54,18.60
2008,07,24,11,55,18.60
2008,07,24,11,56,18.60
2008,07,24,11,57,18.60
2008,07,24,11,58,18.60
2008,07,24,11,59,18.70
2008,07,24,12,00,18.70
2008,07,24,12,01,18.70
2008,07,24,12,02,18.80
2008,07,24,12,03,18.80
2008,07,24,12,04,18.80
2008,07,24,12,05,18.80
2008,07,24,12,06,18.80
2008,07,24,12,07,18.80
2008,07,24,12,08,18.80
2008,07,24,12,09,18.90
2008,07,24,12,10,18.90
2008,07,24,12,11,18.90
2008,07,24,12,12,18.90
2008,07,24,12,13,18.90
2008,07,24,12,14,18.90
2008,07,24,12,15,18.90
2008,07,24,12,16,18.90
2008,07,24,12,17,18.90
2008,07,24,12,18,18.90
2008,07,24,12,19,18.90
2008,07,24,12,20,19.00
2008,07,24,12,21,19.10
2008,07,24,12,22,19.00
2008,07,24,12,23,18.90
2008,07,24,12,24,19.00
2008,07,24,12,25,19.10
2008,07,24,12,26,19.10
2008,07,24,12,27,19.10
2008,07,24,12,28,19.10
2008,07,24,12,29,19.10
2008,07,24,12,30,19.10
2008,07,24,12,31,19.20
2008,07,24,12,32,19.40
2008,07,24,12,33,19.50
2008,07,24,12,34,19.70
2008,07,24,12,35,20.00
2008,07,24,12,36,20.20
2008,07,24,12,37,20.30
2008,07,24,12,38,20.30
2008,07,24,12,39,20.20
2008,07,24,12,40,20.30
2008,07,24,12,41,20.40
2008,07,24,12,42,20.40
2008,07,24,12,43,20.40
2008,07,24,12,44,20.30
2008,07,24,12,45,20.20
2008,07,24,12,46,20.20
2008,07,24,12,47,20.20
2008,07,24,12,48,20.20
2008,07,24,12,49,20.20
2008,07,24,12,50,20.20
2008,07,24,12,51,20.20
2008,07,24,12,52,20.00
2008,07,24,12,53,19.90
2008,07,24,12,54,19.90
2008,07,24,12,55,19.90
2008,07,24,12,56,19.90
2008,07,24,12,57,19.90
2008,07,24,12,58,19.80
2008,07,24,12,59,19.80
2008,07,24,13,00,19.90
2008,07,24,13,01,19.90
2008,07,24,13,02,19.90
2008,07,24,13,03,20.00
2008,07,24,13,04,20.10
2008,07,24,13,05,20.10
2008,07,24,13,06,20.20
2008,07,24,13,07,20.20
2008,07,24,13,08,20.40
2008,07,24,13,09,20.60
2008,07,24,13,10,20.80
2008,07,24,13,11,21.10
2008,07,24,13,12,21.20
2008,07,24,13,13,21.30
2008,07,24,13,14,21.30
2008,07,24,13,15,21.30
2008,07,24,13,16,21.20
2008,07,24,13,17,21.10
2008,07,24,13,18,21.10
2008,07,24,13,19,21.00
2008,07,24,13,20,20.90
2008,07,24,13,21,20.70
2008,07,24,13,22,20.60
2008,07,24,13,23,20.50
2008,07,24,13,24,20.40
2008,07,24,13,25,20.40
2008,07,24,13,26,20.40
2008,07,24,13,27,20.30
2008,07,24,13,28,20.30
2008,07,24,13,29,20.30
2008,07,24,13,30,20.30
2008,07,24,13,31,20.40
2008,07,24,13,32,20.50
2008,07,24,13,33,20.60
2008,07,24,13,34,20.60
2008,07,24,13,35,20.70
2008,07,24,13,36,20.70
2008,07,24,13,37,20.70
2008,07,24,13,38,20.70
2008,07,24,13,39,20.70
2008,07,24,13,40,20.70
2008,07,24,13,41,20.70
2008,07,24,13,42,20.60
2008,07,24,13,43,20.60
2008,07,24,13,44,20.70
2008,07,24,13,45,20.90
2008,07,24,13,46,21.00
2008,07,24,13,47,21.20
2008,07,24,13,48,21.40
2008,07,24,13,49,21.60
2008,07,24,13,50,21.70
2008,07,24,13,51,21.90
2008,07,24,13,52,21.90
2008,07,24,13,53,21.90
2008,07,24,13,54,21.90
2008,07,24,13,55,21.90
2008,07,24,13,56,21.90
2008,07,24,13,57,21.90
2008,07,24,13,58,21.90
2008,07,24,13,59,22.00
2008,07,24,14,00,22.00
2008,07,24,14,01,22.00
2008,07,24,14,02,22.00
2008,07,24,14,03,21.80
2008,07,24,14,04,21.60
2008,07,24,14,05,21.40
2008,07,24,14,06,21.30
2008,07,24,14,07,21.40
2008,07,24,14,08,21.40
2008,07,24,14,09,21.40
2008,07,24,14,10,21.40
2008,07,24,14,11,21.30
2008,07,24,14,12,21.30
2008,07,24,14,13,21.30
2008,07,24,14,14,21.30
2008,07,24,14,15,21.30
2008,07,24,14,16,21.30
2008,07,24,14,17,21.40
2008,07,24,14,18,21.60
2008,07,24,14,19,21.60
2008,07,24,14,20,21.60
2008,07,24,14,21,21.60
2008,07,24,14,22,21.50
2008,07,24,14,23,21.40
2008,07,24,14,24,21.30
2008,07,24,14,25,21.30
2008,07,24,14,26,21.30
2008,07,24,14,27,21.50
2008,07,24,14,28,21.60
2008,07,24,14,29,21.60
2008,07,24,14,30,21.70
2008,07,24,14,31,21.70
2008,07,24,14,32,21.60
2008,07,24,14,33,21.60
2008,07,24,14,34,21.60
2008,07,24,14,35,21.60
2008,07,24,14,36,21.60
2008,07,24,14,37,21.60
2008,07,24,14,38,21.60
2008,07,24,14,39,21.60
2008,07,24,14,40,21.60
2008,07,24,14,41,21.60
2008,07,24,14,42,21.60
2008,07,24,14,43,21.60
2008,07,24,14,44,21.70
2008,07,24,14,45,21.70
2008,07,24,14,46,21.80
2008,07,24,14,47,21.80
2008,07,24,14,48,21.70
2008,07,24,14,49,21.60
2008,07,24,14,50,21.50
2008,07,24,14,51,21.40
2008,07,24,14,52,21.40
2008,07,24,14,53,21.40
2008,07,24,14,54,21.40
2008,07,24,14,55,21.20
2008,07,24,14,56,21.00
2008,07,24,14,57,20.90
2008,07,24,14,58,20.80
2008,07,24,14,59,20.80
2008,07,24,15,00,20.80
2008,07,24,15,01,20.80
2008,07,24,15,02,20.80
2008,07,24,15,03,20.80
2008,07,24,15,04,20.80
2008,07,24,15,05,20.80
2008,07,24,15,06,20.80
2008,07,24,15,07,20.70
2008,07,24,15,08,20.60
2008,07,24,15,09,20.50
2008,07,24,15,10,20.50
2008,07,24,15,11,20.60
2008,07,24,15,12,20.70
2008,07,24,15,13,20.80
2008,07,24,15,14,20.80
2008,07,24,15,15,20.80
2008,07,24,15,16,20.80
2008,07,24,15,17,20.70
2008,07,24,15,18,20.70
2008,07,24,15,19,20.70
2008,07,24,15,20,20.70
2008,07,24,15,21,20.80
2008,07,24,15,22,20.90
2008,07,24,15,23,20.90
2008,07,24,15,24,20.90
2008,07,24,15,25,20.90
2008,07,24,15,26,21.00
2008,07,24,15,27,21.20
2008,07,24,15,28,21.30
2008,07,24,15,29,21.50
2008,07,24,15,30,21.70
2008,07,24,15,31,21.80
2008,07,24,15,32,21.80
2008,07,24,15,33,21.60
2008,07,24,15,34,21.40
2008,07,24,15,35,21.30
2008,07,24,15,36,21.30
2008,07,24,15,37,21.20
2008,07,24,15,38,21.10
2008,07,24,15,39,21.20
2008,07,24,15,40,21.30
2008,07,24,15,41,21.40
2008,07,24,15,42,21.40
2008,07,24,15,43,21.40
2008,07,24,15,44,21.30
2008,07,24,15,45,21.30
2008,07,24,15,46,21.20
2008,07,24,15,47,21.10
2008,07,24,15,48,21.10
2008,07,24,15,49,21.30
2008,07,24,15,50,21.30
2008,07,24,15,51,21.30
2008,07,24,15,52,21.30
2008,07,24,15,53,21.20
2008,07,24,15,54,21.10
2008,07,24,15,55,21.00
2008,07,24,15,56,21.00
2008,07,24,15,57,20.90
2008,07,24,15,58,21.00
2008,07,24,15,59,21.00
2008,07,24,16,00,21.20
2008,07,24,16,01,21.30
2008,07,24,16,02,21.30
2008,07,24,16,03,21.30
2008,07,24,16,04,21.30
2008,07,24,16,05,21.30
2008,07,24,16,06,21.30
2008,07,24,16,07,21.40
2008,07,24,16,08,21.50
2008,07,24,16,09,21.50
2008,07,24,16,10,21.40
2008,07,24,16,11,21.40
2008,07,24,16,12,21.60
2008,07,24,16,13,21.70
2008,07,24,16,14,21.90
2008,07,24,16,15,22.00
2008,07,24,16,16,22.10
2008,07,24,16,17,22.20
2008,07,24,16,18,22.20
2008,07,24,16,19,22.40
2008,07,24,16,20,22.50
2008,07,24,16,21,22.50
2008,07,24,16,22,22.60
2008,07,24,16,23,22.70
2008,07,24,16,24,22.70
2008,07,24,16,25,22.60
2008,07,24,16,26,22.50
2008,07,24,16,27,22.30
2008,07,24,16,28,22.20
2008,07,24,16,29,22.10
2008,07,24,16,30,22.00
2008,07,24,16,31,21.90
2008,07,24,16,32,21.90
2008,07,24,16,33,22.00
2008,07,24,16,34,22.10
2008,07,24,16,35,22.10
2008,07,24,16,36,22.00
2008,07,24,16,37,22.10
2008,07,24,16,38,22.10
2008,07,24,16,39,22.10
2008,07,24,16,40,22.10
2008,07,24,16,41,22.10
2008,07,24,16,42,22.20
2008,07,24,16,43,22.20
2008,07,24,16,44,22.10
2008,07,24,16,45,22.00
2008,07,24,16,46,21.90
2008,07,24,16,47,21.70
2008,07,24,16,48,21.70
2008,07,24,16,49,21.60
2008,07,24,16,50,21.50
2008,07,24,16,51,21.30
2008,07,24,16,52,21.30
2008,07,24,16,53,21.30
2008,07,24,16,54,21.30
2008,07,24,16,55,21.40
2008,07,24,16,56,21.40
2008,07,24,16,57,21.50
2008,07,24,16,58,21.60
2008,07,24,16,59,21.60
2008,07,24,17,00,21.60
2008,07,24,17,01,21.70
2008,07,24,17,02,21.80
2008,07,24,17,03,21.90
2008,07,24,17,04,21.90
2008,07,24,17,05,22.00
2008,07,24,17,06,22.00
2008,07,24,17,07,22.00
2008,07,24,17,08,22.00
2008,07,24,17,09,21.90
2008,07,24,17,10,21.90
2008,07,24,17,11,21.80
2008,07,24,17,12,21.70
2008,07,24,17,13,21.70
2008,07,24,17,14,21.60
2008,07,24,17,15,21.60
2008,07,24,17,16,21.60
2008,07,24,17,17,21.60
2008,07,24,17,18,21.70
2008,07,24,17,19,21.70
2008,07,24,17,20,21.80
2008,07,24,17,21,21.80
2008,07,24,17,22,21.70
2008,07,24,17,23,21.70
2008,07,24,17,24,21.80
2008,07,24,17,25,21.80
2008,07,24,17,26,21.80
2008,07,24,17,27,21.70
2008,07,24,17,28,21.70
2008,07,24,17,29,21.70
2008,07,24,17,30,21.70
2008,07,24,17,31,21.70
2008,07,24,17,32,21.60
2008,07,24,17,33,21.60
2008,07,24,17,34,21.60
2008,07,24,17,35,21.60
2008,07,24,17,36,21.60
2008,07,24,17,37,21.60
2008,07,24,17,38,21.60
2008,07,24,17,39,21.50
2008,07,24,17,40,21.40
2008,07,24,17,41,21.50
2008,07,24,17,42,21.60
2008,07,24,17,43,21.60
2008,07,24,17,44,21.60
2008,07,24,17,45,21.50
2008,07,24,17,46,21.40
2008,07,24,17,47,21.40
2008,07,24,17,48,21.30
2008,07,24,17,49,21.30
2008,07,24,17,50,21.20
2008,07,24,17,51,21.10
2008,07,24,17,52,21.00
2008,07,24,17,53,21.00
2008,07,24,17,54,21.00
2008,07,24,17,55,21.00
2008,07,24,17,56,21.00
2008,07,24,17,57,21.10
2008,07,24,17,58,21.20
2008,07,24,17,59,21.20
2008,07,24,18,00,21.30
2008,07,24,18,01,21.30
2008,07,24,18,02,21.30
2008,07,24,18,03,21.30
2008,07,24,18,04,21.40
2008,07,24,18,05,21.50
2008,07,24,18,06,21.60
2008,07,24,18,07,21.60
2008,07,24,18,08,21.60
2008,07,24,18,09,21.60
2008,07,24,18,10,21.60
2008,07,24,18,11,21.50
2008,07,24,18,12,21.40
2008,07,24,18,13,21.40
2008,07,24,18,14,21.30
2008,07,24,18,15,21.20
2008,07,24,18,16,21.10
2008,07,24,18,17,21.00
2008,07,24,18,18,21.00
2008,07,24,18,19,20.90
2008,07,24,18,20,20.80